Wind_Speed
8 9 9 9 11 11 11 11 11 9 8 9 9 8 7 7 9 12 13 14 15 15 16 16 15 15 16 17 17 17 17 17 16 16 17 18 19 20 20 21 21 21 22 23
9 12 11 11 11 9 9 12 11 10 8 8 8 8 7 5 9 11 11 12 11 11 12 13 14 15 15 14 14 14 15 15 15 16 18 19 21 22 22 22 22 23 23 23
9 10 11 11 10 10 11 11 9 9 9 8 7 6 7 5 7 6 7 9 10 10 11 12 13 13 12 11 12 13 14 14 16 17 18 20 21 22 22 22 23 23 23 24
8 10 10 10 10 10 10 9 8 9 12 11 10 7 5 6 7 6 6 6 6 7 8 9 9 9 10 11 12 13 14 15 17 18 20 21 21 22 23 23 24 24 24 25
8 11 10 10 10 9 9 9 8 11 14 13 10 8 6 5 5 5 4 5 6 6 7 7 9 10 11 12 12 13 15 17 18 19 21 22 23 24 24 24 24 25 25 25
7 8 9 9 9 7 8 9 11 13 14 10 7 9 9 6 4 3 3 5 5 6 7 8 9 11 12 13 13 15 16 18 19 20 22 23 24 24 24 25 25 25 26 26
10 10 9 9 8 8 9 10 13 15 10 5 6 7 7 8 7 7 7 7 7 8 9 10 10 11 13 14 15 17 18 19 21 22 23 24 25 25 25 25 26 27 27 28
12 12 8 9 10 10 9 9 12 13 12 6 6 9 8 8 8 8 9 9 9 9 10 10 11 13 14 15 16 18 19 21 22 23 23 24 25 25 26 27 27 28 29 30
12 12 10 9 10 10 8 7 9 11 11 5 4 8 6 7 7 7 8 9 10 11 11 12 13 14 15 17 18 19 20 21 22 23 24 25 26 27 27 28 28 29 30 31
11 12 10 9 9 8 7 6 5 7 11 10 7 7 10 10 9 9 10 11 12 12 13 14 14 16 17 18 19 20 21 22 23 24 25 26 27 27 27 28 29 30 31 31
11 11 11 10 8 6 7 6 7 6 6 9 9 11 12 12 11 10 11 12 12 13 13 13 14 16 17 18 19 20 21 22 23 24 26 27 28 28 28 29 29 30 31 32
12 12 12 12 11 9 7 7 6 6 3 3 9 12 12 12 11 11 12 13 13 14 14 14 15 16 18 19 20 21 21 23 24 25 26 27 28 29 29 30 30 31 32 33
12 13 13 13 13 8 4 4 5 5 3 3 9 14 12 12 12 12 13 14 14 14 14 15 16 17 18 19 20 21 22 23 25 26 27 28 29 30 31 32 33 33 34 35
12 13 14 15 9 3 3 5 6 7 5 6 9 14 14 10 11 12 13 14 13 13 14 15 16 17 19 19 20 21 22 24 26 27 28 29 31 32 32 34 34 35 36 36
13 12 12 12 9 4 5 7 8 9 9 9 10 12 14 13 13 14 14 14 14 14 14 15 17 18 19 20 20 22 23 25 27 28 29 31 32 33 34 35 36 36 37 37
13 13 12 11 9 9 7 7 9 10 11 10 11 14 17 17 15 16 15 15 15 15 15 16 17 18 19 20 21 23 24 25 27 28 30 31 32 34 35 36 37 37 37 37
14 13 13 11 11 10 9 8 9 10 11 11 13 16 17 17 16 16 16 16 16 16 16 17 18 19 20 21 22 24 25 26 28 29 31 32 33 35 36 38 38 38 38 38
14 14 13 13 13 12 11 9 10 11 12 13 14 16 17 17 17 16 16 16 16 17 17 18 19 20 21 22 23 24 25 27 29 30 32 33 34 36 37 38 39 39 39 39
15 14 14 15 15 14 14 13 11 11 12 14 15 16 17 17 17 16 15 15 16 17 18 19 20 21 22 23 24 26 27 29 30 32 33 35 36 37 38 39 39 39 40 39
15 15 15 16 16 16 17 14 13 12 14 14 15 16 16 17 17 17 16 16 17 18 19 20 21 22 23 24 25 27 28 29 31 33 34 36 37 38 39 40 40 40 40 40
15 15 15 15 16 17 17 16 14 14 16 16 17 17 17 18 19 19 19 18 19 19 20 21 22 23 24 25 27 28 29 30 32 33 35 37 38 38 39 40 40 41 41 41
17 17 16 17 18 19 19 20 18 17 15 17 18 19 19 20 19 19 20 20 20 21 22 22 23 24 25 27 28 29 30 32 33 34 36 37 38 39 40 40 41 41 41 40
18 19 19 21 22 20 20 20 20 18 17 18 20 21 21 21 21 20 20 21 21 22 23 23 24 25 26 28 29 30 31 32 33 35 36 37 39 40 40 41 41 41 41 40
20 23 23 22 22 22 21 19 19 21 20 21 21 22 22 22 22 22 21 22 22 23 24 24 25 27 28 29 30 32 32 34 35 36 38 38 39 41 41 41 41 42 41 40
22 22 22 24 23 21 22 19 19 20 20 21 21 22 23 22 23 24 24 24 24 25 25 26 27 28 30 31 32 33 33 35 36 38 39 39 40 41 41 41 42 42 41 40
24 25 26 25 23 23 24 21 22 22 21 22 23 23 24 24 25 25 25 25 25 26 27 28 29 30 31 33 34 34 35 36 38 39 39 39 40 41 42 42 42 41 41 40
Wind_Direction
4 350 351 329 310 304 299 290 287 292 290 285 284 282 265 262 267 266 270 276 279 282 282 284 287 290 290 291 292 298 302 306 306 307 307 307 306 306 305 304 303 300 297 296
336 324 325 312 302 295 287 293 302 296 301 292 288 278 279 280 286 273 278 287 285 282 280 284 290 292 294 296 300 305 310 311 313 314 312 310 310 309 308 306 304 303 300 297
308 307 302 301 299 293 289 291 306 311 295 283 268 281 292 280 291 289 275 280 287 283 284 289 298 301 302 306 310 314 317 318 321 321 318 315 313 311 310 308 306 304 302 299
291 288 291 294 297 294 298 292 297 296 286 283 274 284 307 283 277 287 298 301 305 312 301 295 303 314 323 324 324 327 328 325 325 324 321 319 318 316 314 312 310 307 305 302
280 293 298 294 292 289 290 288 281 276 273 278 293 305 313 306 284 267 297 313 313 327 319 319 327 329 329 329 330 330 331 330 329 326 324 323 321 319 317 315 313 311 309 306
271 280 289 299 296 296 293 285 279 277 272 285 316 321 331 337 322 332 341 351 338 350 345 340 335 333 333 335 333 335 333 332 331 329 327 326 325 323 320 318 316 314 312 309
290 272 277 295 298 292 296 295 294 306 308 339 346 330 347 353 3 360 3 1 349 351 349 344 342 340 339 339 337 335 333 332 332 331 330 329 327 325 322 320 318 316 314 312
282 282 279 289 293 289 291 300 311 318 336 343 355 336 358 4 360 359 2 357 356 353 348 344 343 342 341 338 336 335 334 333 333 332 331 330 329 327 325 322 320 318 316 314
278 289 291 292 293 287 285 289 299 312 325 306 311 327 3 358 356 353 347 347 347 347 344 343 342 342 340 339 338 337 336 335 334 334 333 332 330 328 326 324 322 320 318 316
267 271 274 291 293 289 282 283 289 312 324 327 309 306 349 345 344 342 340 339 339 340 342 343 341 340 339 338 338 337 337 336 336 336 335 334 332 330 327 325 323 321 320 319
264 265 264 272 289 271 276 276 270 262 279 320 325 314 329 335 336 333 330 330 333 335 337 338 338 337 336 336 337 336 336 337 337 337 335 334 333 331 329 328 326 324 323 321
256 256 255 255 257 246 248 259 262 260 256 310 307 296 313 323 324 327 327 328 331 331 333 335 335 335 335 335 336 336 336 337 337 336 335 335 334 333 331 330 328 326 324 323
263 257 254 252 250 246 245 263 272 266 242 252 290 290 305 314 316 324 325 326 328 328 330 332 333 333 333 334 335 335 336 336 337 337 336 336 336 335 333 332 330 328 326 324
267 261 254 265 284 265 259 278 286 270 248 264 277 290 302 311 309 316 319 320 323 324 325 327 330 331 332 333 334 334 334 335 336 337 337 337 337 336 335 333 332 330 328 327
264 258 255 270 293 299 268 267 267 270 262 264 284 293 297 300 304 310 313 315 318 321 322 324 327 329 330 331 332 333 333 335 337 338 338 337 336 336 335 334 333 331 330 329
267 258 252 253 271 285 278 259 253 253 257 260 269 279 284 293 302 306 308 311 313 315 318 322 324 326 327 329 331 332 333 334 336 336 336 336 336 336 335 334 334 333 332 331
268 262 251 240 238 243 248 250 252 257 256 256 261 270 281 292 297 299 302 306 309 311 315 318 321 324 326 328 329 330 331 332 333 334 334 334 334 335 335 335 334 333 333 332
265 263 255 244 243 254 250 245 259 258 256 258 263 273 281 287 292 295 298 301 304 308 311 315 319 322 323 325 327 329 329 330 332 333 334 333 333 334 334 334 334 334 333 333
262 261 256 249 247 250 252 247 247 259 260 258 261 269 278 283 289 293 298 301 303 306 309 313 317 319 321 323 325 326 327 328 330 331 332 333 333 333 334 334 335 334 334 334
267 261 256 255 254 254 254 249 252 262 266 262 267 274 280 284 288 294 299 301 304 305 308 311 314 316 318 321 322 324 326 327 328 330 331 332 332 333 334 334 334 334 334 333
264 263 259 257 255 255 254 257 252 251 261 270 275 278 282 285 289 294 297 300 302 304 305 308 310 312 314 318 321 322 323 325 326 327 329 330 331 332 333 334 333 333 333 333
267 269 265 260 251 246 245 250 252 249 257 268 274 280 283 286 287 290 293 297 299 301 304 306 309 311 313 316 318 321 322 322 323 324 326 328 330 331 332 333 333 333 333 333
256 258 256 258 256 252 245 251 254 267 270 272 276 280 283 286 288 290 292 295 297 300 302 304 307 309 312 315 317 319 321 323 323 323 325 327 329 330 331 331 332 333 333 332
249 257 258 264 266 265 264 259 266 269 274 275 275 278 281 284 287 289 291 294 297 299 302 303 306 309 311 314 315 316 319 322 323 323 324 326 328 329 330 331 332 333 333 333
254 260 264 265 266 269 273 266 269 274 275 275 277 280 281 283 286 289 291 293 295 298 300 303 305 307 310 312 313 314 317 319 321 322 324 325 326 329 329 330 331 332 333 333
252 257 260 263 265 269 269 269 269 271 274 276 278 279 281 284 286 289 291 292 294 297 301 304 305 305 308 311 312 313 315 317 318 318 320 324 325 327 328 328 329 330 331 332
Height
5874 5873 5872 5873 5872 5871 5869 5867 5864 5863 5861 5859 5856 5855 5853 5855 5858 5858 5859 5859 5858 5858 5859 5859 5859 5859 5859 5859 5858 5857 5856 5854 5853 5851 5849 5848 5846 5845 5843 5841 5840 5838 5837 5835
5874 5873 5873 5872 5870 5869 5868 5866 5864 5864 5862 5859 5856 5854 5852 5854 5856 5855 5855 5856 5856 5856 5856 5856 5857 5857 5856 5856 5855 5854 5853 5851 5850 5847 5845 5844 5842 5840 5839 5837 5835 5833 5831 5830
5874 5875 5873 5871 5870 5868 5867 5865 5863 5862 5861 5859 5857 5855 5854 5854 5854 5852 5853 5853 5853 5853 5854 5854 5854 5854 5853 5853 5852 5851 5850 5848 5846 5844 5842 5840 5838 5836 5834 5832 5830 5828 5826 5824
5873 5873 5871 5870 5869 5867 5865 5864 5862 5861 5859 5856 5853 5851 5853 5853 5853 5852 5851 5851 5852 5852 5851 5852 5852 5852 5851 5850 5849 5848 5847 5845 5843 5841 5839 5837 5835 5833 5830 5827 5825 5823 5821 5818
5872 5871 5870 5869 5868 5866 5864 5862 5860 5858 5855 5851 5850 5849 5850 5851 5851 5851 5851 5851 5851 5850 5850 5850 5850 5850 5849 5848 5847 5846 5844 5843 5840 5838 5836 5833 5830 5828 5825 5822 5820 5817 5815 5812
5869 5868 5868 5867 5866 5865 5863 5862 5859 5856 5851 5850 5850 5851 5850 5849 5850 5848 5849 5850 5849 5849 5850 5849 5849 5848 5847 5846 5845 5844 5842 5840 5837 5835 5832 5829 5826 5823 5820 5817 5814 5811 5809 5806
5866 5865 5865 5865 5865 5864 5862 5861 5858 5854 5849 5850 5852 5851 5850 5849 5849 5849 5848 5849 5849 5849 5849 5849 5848 5847 5846 5844 5843 5841 5839 5837 5834 5832 5829 5825 5822 5819 5816 5812 5809 5806 5803 5800
5864 5863 5861 5863 5863 5862 5861 5859 5858 5855 5851 5851 5851 5851 5851 5850 5850 5849 5849 5850 5849 5849 5848 5848 5847 5845 5844 5843 5841 5839 5837 5834 5831 5828 5825 5822 5818 5815 5811 5807 5804 5800 5797 5793
5862 5861 5861 5862 5861 5861 5860 5859 5858 5855 5851 5849 5850 5850 5851 5850 5851 5851 5851 5850 5849 5849 5847 5846 5845 5843 5842 5840 5838 5836 5834 5831 5828 5825 5821 5818 5814 5810 5806 5802 5799 5795 5791 5787
5861 5860 5860 5859 5859 5859 5859 5858 5858 5857 5854 5852 5849 5848 5850 5851 5851 5851 5850 5849 5849 5847 5846 5844 5843 5842 5840 5838 5836 5833 5831 5828 5825 5821 5817 5814 5810 5806 5802 5798 5794 5789 5785 5780
5859 5859 5858 5857 5857 5857 5857 5857 5856 5856 5855 5854 5850 5851 5850 5851 5850 5850 5849 5849 5848 5846 5845 5843 5842 5840 5838 5836 5833 5831 5828 5825 5822 5818 5814 5810 5806 5802 5798 5793 5789 5784 5779 5774
5855 5856 5854 5854 5854 5852 5853 5854 5854 5855 5855 5855 5853 5853 5850 5849 5850 5849 5848 5847 5846 5845 5843 5842 5840 5839 5836 5834 5831 5828 5825 5822 5819 5815 5811 5807 5802 5798 5793 5788 5783 5778 5773 5768
5852 5852 5852 5851 5851 5850 5851 5852 5853 5853 5854 5854 5853 5852 5849 5849 5848 5848 5847 5846 5845 5843 5841 5840 5838 5836 5834 5832 5829 5826 5823 5820 5816 5812 5807 5803 5798 5793 5788 5783 5777 5772 5766 5760
5849 5849 5849 5847 5845 5846 5849 5851 5852 5852 5852 5852 5851 5849 5847 5847 5847 5846 5846 5844 5843 5842 5840 5838 5837 5835 5832 5829 5827 5823 5820 5817 5813 5808 5803 5799 5794 5789 5783 5778 5772 5766 5760 5754
5845 5846 5846 5844 5844 5845 5848 5849 5850 5851 5850 5850 5849 5848 5845 5844 5845 5844 5843 5842 5841 5840 5838 5837 5835 5832 5830 5827 5824 5821 5817 5814 5809 5805 5800 5795 5790 5784 5778 5772 5766 5760 5753 5747
5842 5843 5843 5844 5843 5844 5844 5847 5849 5849 5849 5849 5848 5847 5844 5843 5842 5842 5841 5840 5839 5837 5836 5834 5832 5830 5827 5824 5821 5818 5814 5810 5806 5801 5796 5791 5785 5780 5773 5767 5761 5754 5747 5741
5839 5840 5841 5841 5842 5842 5844 5845 5846 5846 5846 5846 5846 5845 5842 5841 5841 5840 5839 5838 5836 5835 5833 5831 5829 5827 5824 5821 5818 5814 5811 5807 5802 5797 5792 5786 5781 5775 5768 5762 5755 5748 5741 5734
5836 5836 5837 5838 5839 5839 5841 5841 5841 5842 5843 5843 5842 5840 5839 5838 5838 5837 5836 5835 5833 5832 5830 5828 5826 5823 5821 5818 5814 5811 5807 5802 5798 5793 5787 5782 5776 5770 5763 5756 5749 5742 5735 5728
5832 5833 5833 5834 5835 5835 5836 5836 5836 5838 5838 5838 5838 5837 5836 5835 5834 5833 5832 5831 5830 5829 5827 5825 5822 5820 5817 5814 5810 5806 5802 5798 5793 5788 5783 5777 5770 5764 5757 5750 5743 5736 5729 5721
5828 5829 5830 5830 5831 5831 5831 5830 5831 5834 5833 5833 5832 5833 5832 5831 5830 5830 5829 5828 5826 5825 5823 5821 5818 5816 5813 5810 5806 5802 5798 5793 5789 5783 5777 5771 5765 5759 5752 5745 5737 5730 5723 5715
5823 5824 5825 5826 5826 5826 5825 5826 5827 5830 5830 5829 5828 5828 5828 5827 5827 5826 5824 5823 5822 5820 5818 5816 5814 5811 5808 5805 5801 5797 5793 5788 5783 5778 5772 5766 5760 5753 5746 5739 5732 5724 5717 5709
5820 5821 5821 5821 5821 5823 5821 5822 5822 5821 5822 5824 5824 5824 5823 5822 5822 5821 5820 5819 5817 5816 5814 5811 5809 5806 5803 5800 5796 5792 5788 5783 5778 5772 5767 5761 5754 5748 5741 5734 5726 5718 5711 5703
5816 5817 5816 5816 5816 5813 5813 5815 5816 5817 5817 5819 5820 5819 5818 5817 5816 5815 5815 5813 5812 5810 5808 5806 5804 5801 5797 5794 5790 5786 5782 5777 5772 5766 5761 5755 5748 5742 5735 5728 5720 5713 5705 5698
5810 5810 5810 5810 5809 5808 5808 5807 5811 5812 5813 5814 5814 5813 5812 5812 5810 5810 5809 5808 5806 5804 5802 5800 5797 5795 5791 5788 5784 5780 5775 5771 5766 5760 5754 5748 5743 5736 5729 5722 5714 5707 5699 5692
5805 5805 5805 5805 5804 5804 5804 5805 5806 5807 5807 5807 5807 5807 5806 5805 5804 5804 5803 5802 5800 5798 5796 5794 5791 5788 5785 5781 5777 5773 5769 5764 5759 5754 5748 5742 5736 5729 5722 5715 5708 5701 5693 5686
5798 5799 5800 5798 5799 5801 5802 5801 5802 5802 5802 5802 5802 5801 5800 5799 5798 5797 5796 5795 5794 5792 5789 5787 5784 5781 5778 5774 5770 5766 5762 5757 5752 5746 5741 5735 5729 5722 5716 5709 5702 5695 5688 5681